Location: *
(47.6569°N, 7.4256°E)
Time: 09:34:59
(UTC+00:00)

STARLINK-52 - Pass Details

Date: 14 December 2019
Orbit: 442 x 445 km, 53.0° (Epoch: 17 January)

Event Time Altitude Azimuth Distance (km) Brightness Sun altitude
Rises 17:46:07 0° 265° (W) 2,430 8.5 -20.4°
Reaches altitude 10° 17:48:18 10° 272° (W) 1,562 7.0 -20.8°
Enters shadow 17:51:34 42° 340° (NNW) 644 4.0 -21.3°
